This is the latest recevied weather packets stored in our database for station/object KD4IZ-13. If no packets are shown the sender has not sent any weather packets the latest 10 day(s).
| Time | Temp. | Humidity | Pressure | Rain* | Wind** | Luminosity | Snow |
|---|---|---|---|---|---|---|---|
| 1777487951 | 13.89° C | 90% | 1012.5 hPa | 0 mm | - | 134 W/m² | - |
| 1777487649 | 13.89° C | 89% | 1012.8 hPa | 0 mm | - | 89 W/m² | - |
| 1777487346 | 13.89° C | 88% | 1012.7 hPa | 0 mm | - | 99 W/m² | - |
| 1777487044 | 13.89° C | 87% | 1012.9 hPa | 0 mm | - | 108 W/m² | - |
| 1777486739 | 13.89° C | 87% | 1012.8 hPa | 0 mm | - | 101 W/m² | - |
| 1777486437 | 13.89° C | 86% | 1013 hPa | 0 mm | - | 88 W/m² | - |
| 1777486134 | 13.89° C | 87% | 1013 hPa | 0 mm | - | 111 W/m² | - |
| 1777485831 | 13.89° C | 87% | 1013.4 hPa | 0 mm | - | 122 W/m² | - |
| 1777485526 | 13.89° C | 87% | 1013.4 hPa | 0 mm | - | 116 W/m² | - |
| 1777485223 | 13.89° C | 86% | 1013.2 hPa | 0 mm | - | 146 W/m² | - |
| 1777484919 | 13.89° C | 86% | 1013.4 hPa | 0 mm | - | 173 W/m² | - |
| 1777484616 | 13.89° C | 86% | 1013.7 hPa | 0 mm | - | 150 W/m² | - |
| 1777484313 | 14.44° C | 85% | 1013.4 hPa | 0 mm | - | 145 W/m² | - |
| 1777484009 | 13.89° C | 86% | 1013.6 hPa | 0 mm | - | 122 W/m² | - |
| 1777483706 | 13.89° C | 86% | 1013.5 hPa | 0 mm | - | 111 W/m² | - |
| 1777483401 | 13.89° C | 86% | 1013.6 hPa | 0 mm | - | 103 W/m² | - |
| 1777483096 | 13.89° C | 86% | 1013.9 hPa | 0 mm | - | 132 W/m² | - |
| 1777482794 | 13.89° C | 86% | 1013.9 hPa | 0 mm | - | 179 W/m² | - |
| 1777482489 | 13.89° C | 85% | 1014 hPa | 0 mm | - | 177 W/m² | - |
| 1777482187 | 13.89° C | 86% | 1014.2 hPa | 0 mm | - | 136 W/m² | - |
| 1777481885 | 13.89° C | 86% | 1013.9 hPa | 0 mm | - | 147 W/m² | - |
| 1777481582 | 13.89° C | 86% | 1014.3 hPa | 0 mm | - | 108 W/m² | - |
| 1777481279 | 13.89° C | 85% | 1014.6 hPa | 0 mm | - | 134 W/m² | - |
| 1777480975 | 13.33° C | 86% | 1014.4 hPa | 0 mm | - | 180 W/m² | - |
| 1777480672 | 13.33° C | 86% | 1014.6 hPa | 0 mm | - | 164 W/m² | - |
* Rain latest hour (hover to see other rain measurements)
** Current wind speed in m/s (hover to see current wind gust speed)